Home   Weather   Lustenau   Past weeks

Flag for Austria Past Weather in Lustenau, Vorarlberg, Austria — Yesterday and Last 2 Weeks

Now
46 °F

Light rain. Passing clouds.


Feels Like: 46 °F
Forecast: 40 / 46 °F
Wind: 2 mph from North

Location: Saint Gallen-Altenrhein

Current Time: Apr 25, 2017 at 10:26:56 pm

Latest Report: Apr 25, 2017 at 9:50 pm


Visibility: N/A

Pressure: 29.77 "Hg

Humidity: 87%

Dew Point: 43 °F

Location of LustenauLocation

Past Weather in Lustenau — Graph

°F

Lustenau Temperature Yesterday

Maximum temperature yesterday: 63 °F (at 5:50 pm)
Minimum temperature yesterday: 32 °F (at 6:20 am)
Average temperature yesterday: 48 °F

High & Low Weather Summary for the Past Weeks

 TemperatureHumidityPressure
High68 °F (Apr 10, 9:50 pm)100% (Apr 16, 5:20 pm)30.51 "Hg (Apr 16, 5:20 pm)
Low28 °F (Apr 20, 4:50 am)22% (Apr 21, 6:50 pm)29.74 "Hg (Apr 25, 1:50 pm)
Average47 °F70%30.15 "Hg
* Reported Apr 10 9:20 pm — Apr 25 9:20 pm, Lustenau, Weather by CustomWeather, © 2017

Note: Actual official high and low records may vary slightly from our data, if they occured in-between our weather recording intervals... More about our weather records

Advertising

Lustenau Weather History for the Previous 24 Hours

Scroll right to see more
 ConditionsComfort  
Time TempWeatherWind HumidityBarometerVisibility
9:20 pm
Tue, Apr 25
46 °FRain. Partly cloudy.1 mph93%29.77 "HgN/A
8:50 pm46 °FLight rain. Partly cloudy.3 mph93%29.77 "Hg6 mi
8:20 pm48 °FLight rain. Broken clouds.8 mph82%29.77 "Hg5 mi
7:50 pm48 °FLight rain. Broken clouds.3 mph94%29.77 "Hg5 mi
7:20 pm48 °FLight rain. Broken clouds.7 mph87%29.77 "Hg4 mi
6:50 pm48 °FLight rain. Broken clouds.9 mph87%29.77 "Hg4 mi
6:20 pm50 °FLight rain. Broken clouds.15 mph82%29.77 "Hg3 mi
5:50 pm50 °FLight rain. Broken clouds.9 mph94%29.77 "Hg3 mi
5:20 pm52 °FLight rain. Broken clouds.9 mph88%29.77 "Hg4 mi
4:50 pm52 °FLight rain. Broken clouds.13 mph88%29.77 "Hg4 mi
4:20 pm52 °FLight rain. Broken clouds.14 mph82%29.77 "HgN/A
3:50 pm54 °FLight rain. Broken clouds.14 mph72%29.74 "HgN/A
3:20 pm59 °FPartly sunny.9 mph51%29.74 "HgN/A
2:50 pm59 °FPartly sunny.9 mph59%29.74 "HgN/A
2:20 pm59 °FPartly sunny.13 mph55%29.74 "HgN/A
1:50 pm59 °FPartly sunny.10 mph63%29.74 "HgN/A
1:20 pm57 °FPartly sunny.12 mph67%29.77 "HgN/A
12:50 pm55 °FPartly sunny.9 mph82%29.77 "HgN/A
12:20 pm55 °FLight rain. Mostly cloudy.12 mph77%29.77 "HgN/A
11:50 am55 °FPartly sunny.9 mph77%29.77 "HgN/A
11:20 am55 °FBroken clouds.13 mph77%29.77 "HgN/A
10:50 am54 °FBroken clouds.13 mph82%29.77 "HgN/A
10:20 am55 °FBroken clouds.14 mph77%29.77 "HgN/A
9:50 am54 °FBroken clouds.14 mph82%29.77 "HgN/A
9:20 am59 °FBroken clouds.10 mph59%29.77 "HgN/A
8:50 am57 °FLight rain. Broken clouds.7 mph63%29.77 "HgN/A
8:20 am55 °FLight rain. Broken clouds.10 mph67%29.77 "HgN/A
7:50 am57 °FBroken clouds.9 mph59%29.77 "HgN/A
7:20 am55 °FDrizzle. Broken clouds.3 mph67%29.77 "HgN/A
6:50 am52 °FLight rain. Mostly cloudy.6 mph82%29.77 "HgN/A
6:20 am50 °FLight rain. Broken clouds.5 mph88%29.77 "HgN/A
5:50 am54 °FOvercast.6 mph67%29.77 "HgN/A
5:20 am55 °FMostly cloudy.9 mph67%29.77 "HgN/A
4:20 am52 °FOvercast.2 mph77%29.77 "HgN/A
3:50 am48 °FOvercast.5 mph94%29.77 "HgN/A
3:20 am48 °FOvercast.1 mph87%29.77 "HgN/A
2:50 am48 °FOvercast.2 mph82%29.77 "HgN/A
2:20 am48 °FClear.2 mph76%29.80 "HgN/A
1:50 am45 °FClear.2 mph81%29.80 "Hg10 mi
1:20 am48 °FClear.2 mph76%29.80 "HgN/A
12:50 am50 °FCool.2 mph71%29.80 "HgN/A
12:20 am52 °FPassing clouds.6 mph67%29.80 "HgN/A
11:50 pm
Mon, Apr 24
54 °FClear.9 mph67%29.83 "Hg10 mi
11:20 pm63 °FMild.12 mph37%29.80 "HgN/A
10:50 pm63 °FClear.12 mph39%29.83 "Hg10 mi
10:20 pm61 °FPassing clouds.10 mph45%29.83 "HgN/A
Weather by CustomWeather, © 2017

See weather overviewHow to use our weather pages